#timestamp,LO_Frequency,Hit,StdDev 
1585396815.8,286046984.9,N
1585396835.6,286046981.0,N
1585396855.5,286046983.5,N
1585396875.3,286046982.2,N
1585396895.1,286046980.5,N
1585396915.9,286046981.4,N
1585396935.7,286046977.7,N
1585396955.6,286046977.1,N
1585396975.4,286046975.0,N
1585396995.2,286046974.6,N
1585397015.1,286046974.1,N
1585397016.0,286046974.1,N
1585397035.8,286046976.4,N
1585397055.6,286046979.7,N
1585397075.5,286046980.4,N
1585397095.3,286046978.2,N
1585397115.2,286046981.9,N
1585397135.9,286046984.8,N
1585397155.7,286046981.7,N
1585397175.6,286046977.3,N
1585397195.4,286046980.0,N
1585397215.2,286046976.3,N
1585397235.1,286046976.9,N
1585397236.0,286046976.9,Y
1585397255.8,286046990.5,P
1585397275.7,286046988.6,N
1585397295.5,286046990.1,N
1585397315.3,286046990.4,N
1585397335.2,286046988.8,Y
1585397355.0,286047004.0,P
1585397355.9,286047004.0,N
1585397375.7,286047001.5,N
1585397395.6,286047002.0,N
1585397415.4,286047002.8,N
1585397435.3,286047007.1,N
1585397455.1,286047005.6,N
1585397456.0,286047005.6,N
1585397475.8,286047005.5,N
1585397495.7,286047002.7,N
1585397515.5,286047000.4,N
1585397535.3,286046997.4,N
1585397555.2,286046996.4,N
1585397575.0,286046997.3,N
1585397575.9,286046997.3,N
1585397595.8,286046991.7,N
1585397615.6,286046991.7,N
1585397635.4,286046991.1,N
1585397655.3,286046990.6,N
1585397675.1,286046988.9,N
1585397695.9,286046992.2,N
1585397715.7,286046991.0,N
1585397735.5,286046991.2,N
1585397755.4,286046988.1,N
1585397775.2,286046988.2,N
1585397795.0,286046990.0,N
1585397795.9,286046990.0,N
1585397815.8,286046987.0,N
1585397835.6,286046989.6,N
1585397855.5,286046987.6,N
1585397875.3,286046986.6,N
1585397895.1,286046986.8,N
1585397915.9,286046985.2,N
1585397935.7,286046980.8,N
1585397955.5,286046979.6,N
1585397975.4,286046981.7,N
1585397995.2,286046980.1,N
1585398015.1,286046980.1,N
1585398016.0,286046980.1,Y
1585398035.8,286046990.3,P
1585398055.6,286046991.1,P
1585398075.5,286046991.0,P
1585398095.3,286046992.7,Y
1585398115.1,286047004.0,P
1585398135.9,286047002.8,N
1585398155.7,286046996.7,N
1585398175.6,286046997.7,N
1585398195.4,286046995.5,N
1585398215.2,286046995.9,N
1585398235.1,286046995.7,N
1585398236.0,286046995.7,N
1585398255.8,286046994.2,N
1585398275.6,286046992.2,N
1585398295.5,286046997.7,N
1585398315.3,286046997.6,N
1585398335.2,286046990.1,N
1585398355.9,286046991.4,N
1585398375.7,286046992.9,N
1585398395.6,286046992.0,N
1585398415.4,286046988.8,N
1585398435.3,286046987.0,Y
1585398455.1,286046993.7,P
1585398456.0,286046993.7,P
1585398475.8,286046992.1,P
1585398495.7,286046989.1,Y
1585398515.5,286046993.3,P
1585398535.3,286046994.7,P
1585398555.2,286046995.9,P
1585398575.0,286046997.7,N
1585398575.9,286046997.7,N
1585398595.8,286046997.6,N
1585398615.6,286046998.9,N
1585398635.4,286046997.6,N
1585398655.3,286046996.6,N
1585398675.1,286046996.2,N
1585398695.9,286046996.1,N
1585398715.7,286046996.2,N
1585398735.5,286046997.2,N
1585398755.4,286047000.8,N
1585398775.2,286046995.1,N
1585398795.0,286046993.5,Y
1585398795.9,286046993.5,P
1585398815.8,286046997.0,N
1585398835.6,286046996.6,N
1585398855.5,286046997.5,N
1585398875.3,286046997.3,N
1585398895.1,286046996.7,N
1585398915.9,286046997.0,N
1585398935.7,286046996.3,Y
1585398955.5,286046999.4,P
1585398975.4,286046997.6,N
1585398995.2,286046994.0,P
1585399015.1,286046993.6,Y
1585399016.0,286046993.6,P
1585399035.8,286046994.9,P
1585399055.6,286046998.0,N
1585399075.5,286046993.3,Y
1585399095.3,286047002.8,P
1585399115.2,286047001.1,N
1585399135.9,286047000.6,N
1585399155.7,286047002.2,N
1585399175.6,286046998.2,N
1585399195.4,286046995.0,N
1585399215.2,286046997.8,N
1585399235.1,286047000.1,N
1585399236.0,286047000.1,N
1585399255.8,286047001.5,N
1585399275.7,286046999.8,N
1585399295.5,286046988.6,Y
1585399315.4,286046992.3,P
1585399335.2,286046997.9,N
1585399355.0,286046997.7,N
1585399355.9,286046997.7,N
1585399375.8,286046997.0,N
1585399395.6,286046997.1,N
1585399415.5,286046994.9,N
1585399435.3,286046997.1,N
1585399455.2,286046999.1,N
1585399475.9,286046995.4,N
1585399495.7,286046998.0,N
1585399515.6,286046995.2,N
1585399535.4,286046995.0,N
1585399555.2,286046995.5,N
1585399575.1,286046994.2,Y
1585399576.0,286046994.2,P
1585399595.8,286046996.4,N
1585399615.7,286046996.6,P
1585399635.5,286046998.5,N
1585399655.4,286047001.0,N
1585399675.2,286046999.1,N
1585399695.0,286046998.2,N
1585399695.9,286046998.2,N
1585399715.8,286046999.5,N
1585399735.6,286046993.3,Y
1585399755.5,286046999.1,P
1585399775.3,286047002.3,P
1585399795.1,286047002.2,N
1585399815.9,286047002.3,N
1585399835.7,286046995.5,N
1585399855.5,286046995.6,N
1585399875.4,286046995.2,N
1585399895.2,286046998.6,N
1585399915.1,286046998.2,N
1585399916.0,286046998.2,N
1585399935.8,286046995.1,N
1585399955.6,286046995.2,N
1585399975.5,286046997.7,N
1585399995.3,286047000.0,N
1585400015.1,286047000.5,N
1585400035.9,286046999.8,N
1585400055.7,286047000.0,N
1585400075.6,286047001.4,N
1585400095.4,286047005.6,N
1585400115.2,286047001.9,N
1585400135.1,286047001.6,N
1585400136.0,286047001.6,N
1585400155.8,286047002.8,N
1585400175.6,286047001.7,N
1585400195.5,286047003.8,N
1585400215.3,286047001.3,N
1585400235.2,286047003.9,N
1585400255.9,286046997.0,N
1585400275.7,286046997.7,N
1585400295.6,286046994.9,N
1585400315.4,286046997.9,N
1585400335.2,286046994.6,N
1585400355.1,286046991.1,N
1585400356.0,286046991.1,N
1585400375.8,286046994.4,N
1585400395.7,286046992.4,N
